Location: Chittendens Corners
(41.2320°N, 81.4940°W)
Time: 18:35:45
(UTC+00:00)

NOSS 3-3 (C) - Pass Details

Date: 29 October 2020
Orbit: 825 x 1387 km, 63.4° (Epoch: 22 November)

Event Time Altitude Azimuth Distance (km) Brightness Sun altitude
Rises 23:23:36 0° 205° (SSW) 3,374 7.3 -11.7°
Reaches altitude 10° 23:25:58 10° 202° (SSW) 2,474 6.5 -12.1°
Maximum altitude 23:31:36 69° 120° (ESE) 970 3.8 -13.2°
Drops below altitude 10° 23:37:56 10° 39° (NE) 2,770 6.0 -14.3°
Enters shadow 23:38:38 - 38° (NE) 3,026 6.2 -14.5°
